"Pseudo-MPEC" for ABC0054

Created 2025 May 18 16:31:02 UT using Find_Orb

Click here for an explanation of pseudo-MPECs

 
 Astrometry: 
     ABC0054*KB2025 04 29.86355 09 27 42.90 +33 46 20.0    ~4UL2 19.8 GXNEOCP122
     ABC0054 KB2025 04 29.86901 09 27 43.19 +33 46 21.3    ~4UL2 19.4 GXNEOCP122
     ABC0054 KB2025 04 29.87449 09 27 43.91 +33 46 23.6    ~4UL2 20.0 GXNEOCP122

Station data:
(122) Pises Observatory  (N44.039539 E3.503500)  France. 0.40-m f/4.7
   reflector.

Orbital elements:  ABC0054
   Perihelion 2025 Feb 25.50517 +/- 84.4 TT = 12:07:26 (JD 2460732.00517)
Epoch 2025 Apr 30.0 TT = JDT 2460795.5   Earth MOID: 0.0150   Ve: 0.0075
M  16.32930699 +/- 80               (J2000 ecliptic)             AutoNEOCP
n   0.25717536 +/- 0.511            Peri.  258.87978 +/- 80
a   2.44896819 +/- 3.24             Node   194.20361 +/- 28
e   0.8043710 +/- 0.216             Incl.  126.21595 +/- 41
P   3.83243                H 18.32  G  0.15   U 12.3  SR
q 0.47908912 +/- 0.562    Q 4.41884726 +/- 6.95
From 3 observations 2025 Apr. 29 (15.8 min); mean residual 0".90
Residuals in arcseconds: 
250429 122  .89+  .17+    250429 122  1.8-  .33-    250429 122  .89+  .17+    

Ephemerides (geocentric):
Date (UTC) HH   RA             Dec           delta  r     elong  mag " sig PA
---- --------  ------------   ------------  ------ ------ -----  --- --------
2025 05 18 17  09 50 09.763   +34 12 35.42  1.3019 1.5159  80.8 21.4 200'  96
2025 05 18 18  09 50 12.279   +34 12 32.87  1.3032 1.5165  80.8 21.4 201'  96
2025 05 18 19  09 50 14.794   +34 12 30.31  1.3045 1.5170  80.8 21.4 202'  96
2025 05 18 20  09 50 17.309   +34 12 27.74  1.3057 1.5175  80.7 21.4 204'  96
2025 05 18 21  09 50 19.823   +34 12 25.15  1.3070 1.5180  80.7 21.4 205'  96
2025 05 18 22  09 50 22.336   +34 12 22.54  1.3083 1.5185  80.7 21.4 206'  96
2025 05 18 23  09 50 24.848   +34 12 19.93  1.3095 1.5191  80.6 21.4 207'  96
2025 05 19 00  09 50 27.360   +34 12 17.29  1.3108 1.5196  80.6 21.4 208'  96
2025 05 19 01  09 50 29.871   +34 12 14.64  1.3121 1.5201  80.6 21.4 210'  96
2025 05 19 02  09 50 32.382   +34 12 11.98  1.3134 1.5206  80.6 21.4 211'  96
2025 05 19 03  09 50 34.892   +34 12 09.30  1.3146 1.5212  80.5 21.4 212'  96
2025 05 19 04  09 50 37.401   +34 12 06.61  1.3159 1.5217  80.5 21.4 213'  95
2025 05 19 05  09 50 39.909   +34 12 03.91  1.3172 1.5222  80.5 21.4 214'  95
2025 05 19 06  09 50 42.417   +34 12 01.19  1.3184 1.5227  80.4 21.4 216'  95
2025 05 19 07  09 50 44.924   +34 11 58.45  1.3197 1.5233  80.4 21.4 217'  95
2025 05 19 08  09 50 47.430   +34 11 55.70  1.3210 1.5238  80.4 21.4 218'  95
2025 05 19 09  09 50 49.936   +34 11 52.94  1.3222 1.5243  80.4 21.4 220'  95
2025 05 19 10  09 50 52.441   +34 11 50.16  1.3235 1.5248  80.3 21.4 221'  95
2025 05 19 11  09 50 54.945   +34 11 47.37  1.3248 1.5253  80.3 21.5 222'  95
2025 05 19 12  09 50 57.449   +34 11 44.56  1.3260 1.5259  80.3 21.5 223'  95
2025 05 19 13  09 50 59.952   +34 11 41.74  1.3273 1.5264  80.2 21.5 225'  95
2025 05 19 14  09 51 02.455   +34 11 38.90  1.3286 1.5269  80.2 21.5 226'  95
2025 05 19 15  09 51 04.956   +34 11 36.05  1.3298 1.5274  80.2 21.5 227'  95
2025 05 19 16  09 51 07.458   +34 11 33.19  1.3311 1.5280  80.1 21.5 229'  95
2025 05 19 17  09 51 09.958   +34 11 30.31  1.3324 1.5285  80.1 21.5 230'  95
2025 05 19 18  09 51 12.458   +34 11 27.42  1.3336 1.5290  80.1 21.5 231'  95
2025 05 19 19  09 51 14.958   +34 11 24.51  1.3349 1.5295  80.1 21.5 233'  95
2025 05 19 20  09 51 17.456   +34 11 21.59  1.3362 1.5300  80.0 21.5 234'  94
2025 05 19 21  09 51 19.954   +34 11 18.66  1.3374 1.5306  80.0 21.5 236'  94
2025 05 19 22  09 51 22.452   +34 11 15.71  1.3387 1.5311  80.0 21.5 237'  94
2025 05 19 23  09 51 24.949   +34 11 12.75  1.3400 1.5316  79.9 21.5 238'  94
2025 05 20 00  09 51 27.445   +34 11 09.78  1.3412 1.5321  79.9 21.5 240'  94
2025 05 20 01  09 51 29.941   +34 11 06.79  1.3425 1.5327  79.9 21.5 241'  94
2025 05 20 02  09 51 32.436   +34 11 03.78  1.3438 1.5332  79.9 21.5 243'  94
2025 05 20 03  09 51 34.931   +34 11 00.77  1.3450 1.5337  79.8 21.5 244'  94
2025 05 20 04  09 51 37.425   +34 10 57.74  1.3463 1.5342  79.8 21.5 246'  94
2025 05 20 05  09 51 39.918   +34 10 54.69  1.3475 1.5347  79.8 21.5 247'  94
2025 05 20 06  09 51 42.411   +34 10 51.64  1.3488 1.5353  79.7 21.5 249'  94
2025 05 20 07  09 51 44.903   +34 10 48.57  1.3501 1.5358  79.7 21.5 250'  94
2025 05 20 08  09 51 47.395   +34 10 45.48  1.3513 1.5363  79.7 21.5 252'  94
2025 05 20 09  09 51 49.886   +34 10 42.39  1.3526 1.5368  79.7 21.5 253'  94
2025 05 20 10  09 51 52.376   +34 10 39.27  1.3539 1.5373  79.6 21.5 255'  94
2025 05 20 11  09 51 54.866   +34 10 36.15  1.3551 1.5379  79.6 21.5 256'  93
2025 05 20 12  09 51 57.356   +34 10 33.01  1.3564 1.5384  79.6 21.5 258'  93
2025 05 20 13  09 51 59.845   +34 10 29.86  1.3576 1.5389  79.5 21.5 259'  93
2025 05 20 14  09 52 02.333   +34 10 26.70  1.3589 1.5394  79.5 21.5 261'  93
2025 05 20 15  09 52 04.821   +34 10 23.52  1.3602 1.5399  79.5 21.5 262'  93
2025 05 20 16  09 52 07.308   +34 10 20.33  1.3614 1.5405  79.4 21.5 264'  93